sat.trackr.live / text

‹ back to catalog

STARLINK-34165

NORAD 63997 · 2025-101D

PAYLOAD ACTIVE UNKNOWN

§ Identity

Operator
Country
US
Launch date
2025-05-14
Launch site
AFETR
Launch vehicle
Mass (kg)
RCS (m²)

Purposes: comms

External: N2YO · Heavens-Above · Gunter

§ Orbital elements

Epoch: 2026-05-25T02:13:27.876000Z

Period
94.27 min
Inclination
42.9955°
Eccentricity
0.0000792
Mean motion
15.27599516 rev/d
Perigee alt
482.4 km
Apogee alt
483.5 km
Semi-major
6,861.1 km
B*
5.3556e-4
RAAN
286.1734°
Arg perigee
303.1001°
Mean anomaly
56.9775°
Rev number
5,874

§ Raw data

STARLINK-341651 63997U 25101D   26145.09268375  .00014513  00000+0  53556-3 0  99912 63997  42.9955 286.1734 0000792 303.1001  56.9775 15.27599516 58740

JSON: /api/v1/satellites/63997 · /tle

For live sub-satellite position, see the globe view (requires WebGL).

§ Visibility from observer

Set your observer location to see the next 7 days of passes ≥ 10°. The values pass through the URL so the page stays shareable.

No JS? Fill the form by hand. The geolocation button needs JavaScript.